Simultaneous Nadir Overpasses (SNOs) Predictions

Prediction of SNOs between NOAA-19 and TERRA Satellite Orbit:

Table of predicted SNOs for the next 14.0 days since TLE Epoch: 1/11/2013
Index Date (NOAA-19) Time (NOAA-19) Lat,Lon (NOAA-19) SZA (NOAA-19 ) Date (TERRA) Time (TERRA) Lat,Lon (TERRA) SZA (TERRA ) Distance(km) Time Diff (sec)
1 01/13/2013 16:56:07 69.27, -74.51 90.54 01/13/2013 16:57:06 69.26, -74.51 90.53 0.37 59
2 01/13/2013 17:47:00 -69.12, 92.97 89.62 01/13/2013 17:46:37 -69.10, 92.91 89.65 3.47 23
3 01/15/2013 21:40:36 69.28,-145.64 90.15 01/15/2013 21:41:24 69.26,-145.59 90.13 3.04 48
4 01/15/2013 22:31:29 -69.12, 21.86 90.02 01/15/2013 22:30:55 -69.09, 21.83 90.05 3.25 34
5 01/18/2013 02:25:04 69.24, 143.31 89.68 01/18/2013 02:25:42 69.24, 143.32 89.68 0.20 38
6 01/18/2013 03:15:58 -69.12, -49.25 90.45 01/18/2013 03:15:12 -69.13, -49.19 90.44 2.93 46
7 01/20/2013 07:09:32 69.20, 72.26 89.18 01/20/2013 07:10:00 69.21, 72.21 89.19 2.39 28
8 01/20/2013 08:00:27 -69.12,-120.36 90.92 01/20/2013 07:59:30 -69.11,-120.29 90.92 2.66 57
9 01/22/2013 11:54:01 69.22, 1.13 88.71 01/22/2013 11:54:17 69.23, 1.16 88.72 2.26 16
10 01/22/2013 12:44:55 -69.06, 168.61 91.47 01/22/2013 12:43:48 -69.07, 168.59 91.45 1.96 67
11 01/24/2013 16:38:28 69.18, -69.93 88.15 01/24/2013 16:38:34 69.18, -69.97 88.15 1.72 6




NCC Satellite Simultaneous Nadir Overpasses (SNOs) Prediction Service
